Weather History for KLAW - May, 2013

Change the Weather History Date:

Monday, May 27, 2013

  Actual Average Record
Temperature  
Mean Temperature 80 °F -  
Max Temperature 90 °F 85 °F 98 °F (2011)
Min Temperature 70 °F 62 °F 46 °F (1961)
Cooling Degree Days 14    
Growing Degree Days 30 (Base 50)    
Moisture  
Dew Point 67 °F    
Average Humidity 67    
Maximum Humidity 90    
Minimum Humidity 46    
Precipitation  
Precipitation 0.00 in - - ()
Sea Level Pressure  
Sea Level Pressure 29.78 in    
Wind  
Wind Speed 16 mph (SSE)    
Max Wind Speed 26 mph    
Max Gust Speed 38 mph    
Visibility 10 miles    
Events      
Averages and records for this station are not official NWS values.
T = Trace of Precipitation, MM = Missing Value Source: NWS Daily Summary

Daily Weather History Graph

Daily Weather History Graph

Search for Another Location

Airport or City:

Trip Planner

Search our weather history database for the weather conditions in past years. The results will help you decide how hot, cold, wet, or windy it might be!

Date:

Astronomy

May. 27, 2013 Rise Set
Actual Time 6:23 AM CDT 8:38 PM CDT
Civil Twilight 5:55 AM CDT 9:07 PM CDT
Nautical Twilight 5:19 AM CDT 9:42 PM CDT
Astronomical Twilight 4:41 AM CDT 10:20 PM CDT
Moon 11:21 PM CDT (5/27) 9:01 AM CDT (5/27)
Length of Visible Light 15h 11m
Length of Day
14h 14m
Waning Gibbous, 91% of the Moon is Illuminated
May 27
Waning Gibbous
May 31
Last Quarter
Jun 8
New
Jun 16
First Quarter
Jun 23
Full

Hourly Weather History & Observations

Time (CDT) Temp. Heat Index Dew Point Humidity Pressure Visibility Wind Dir Wind Speed Gust Speed Precip Events Conditions
12:53 AM 77.0 °F - 69.1 °F 76% 29.86 in 10.0 mi SSE 15.0 mph 21.9 mph N/A   Clear
1:53 AM 75.9 °F - 69.1 °F 79% 29.83 in 10.0 mi SSE 16.1 mph - N/A   Clear
2:53 AM 73.9 °F - 69.1 °F 85% 29.83 in 10.0 mi South 17.3 mph 23.0 mph N/A   Clear
3:53 AM 73.0 °F - 68.0 °F 84% 29.83 in 10.0 mi South 11.5 mph - N/A   Clear
4:53 AM 73.0 °F - 68.0 °F 84% 29.82 in 10.0 mi South 10.4 mph - N/A   Clear
5:53 AM 71.1 °F - 68.0 °F 90% 29.83 in 10.0 mi South 10.4 mph - N/A   Clear
6:53 AM 70.0 °F - 66.9 °F 90% 29.84 in 10.0 mi South 11.5 mph - N/A   Clear
7:40 AM 71.6 °F - 66.2 °F 83% 29.89 in 10.0 mi South 13.8 mph - N/A   Mostly Cloudy
7:53 AM 73.0 °F - 66.9 °F 81% 29.86 in 10.0 mi South 15.0 mph 20.7 mph N/A   Overcast
8:53 AM 75.0 °F - 66.0 °F 73% 29.85 in 10.0 mi South 17.3 mph 25.3 mph N/A   Overcast
9:53 AM 78.1 °F - 66.0 °F 66% 29.83 in 10.0 mi South 19.6 mph 26.5 mph N/A   Overcast
10:53 AM 79.0 °F - 66.0 °F 64% 29.83 in 10.0 mi South 13.8 mph 27.6 mph N/A   Overcast
11:17 AM 80.6 °F 82.7 °F 66.2 °F 61% 29.86 in 10.0 mi South 18.4 mph 25.3 mph N/A   Overcast
11:53 AM 82.9 °F 85.4 °F 66.9 °F 58% 29.81 in 10.0 mi SSE 16.1 mph 26.5 mph N/A   Mostly Cloudy
12:53 PM 87.1 °F 90.6 °F 68.0 °F 53% 29.78 in 10.0 mi South 21.9 mph 32.2 mph N/A   Partly Cloudy
1:53 PM 89.1 °F 92.9 °F 68.0 °F 50% 29.75 in 10.0 mi South 20.7 mph 35.7 mph N/A   Clear
2:53 PM 89.1 °F 92.1 °F 66.9 °F 48% 29.73 in 10.0 mi SSE 25.3 mph 38.0 mph N/A   Partly Cloudy
3:53 PM 89.1 °F 92.1 °F 66.9 °F 48% 29.72 in 10.0 mi SSE 26.5 mph 38.0 mph N/A   Clear
4:53 PM 89.1 °F 91.3 °F 66.0 °F 46% 29.70 in 10.0 mi South 25.3 mph 35.7 mph N/A   Clear
5:53 PM 88.0 °F 90.7 °F 66.9 °F 49% 29.67 in 10.0 mi SSE 19.6 mph 34.5 mph N/A   Clear
6:53 PM 84.0 °F 86.3 °F 66.0 °F 55% 29.69 in 10.0 mi South 21.9 mph 33.4 mph N/A   Clear
7:53 PM 82.0 °F 84.5 °F 66.9 °F 60% 29.71 in 10.0 mi SSE 18.4 mph - N/A   Clear
8:53 PM 81.0 °F 83.3 °F 66.9 °F 62% 29.71 in 10.0 mi SSE 11.5 mph 17.3 mph N/A   Scattered Clouds
9:53 PM 80.1 °F 82.3 °F 66.9 °F 64% 29.71 in 10.0 mi SSE 20.7 mph 28.8 mph N/A   Clear
10:53 PM 80.1 °F 82.3 °F 66.9 °F 64% 29.66 in 10.0 mi SE 19.6 mph 32.2 mph N/A   Clear
11:53 PM 81.0 °F 83.0 °F 66.0 °F 60% 29.71 in 10.0 mi South 13.8 mph 21.9 mph N/A   Clear